[[{"header":{"parameterUnit":"m.s-1","parameterCategory":1,"la1":30.2992,"la2":30.254,"lo1":-89.0895,"lo2":-89.0443,"dy":0.0025,"dx":0.0025,"nx":19,"ny":19,"refTime":"2026-04-21T09:00:00:Z","depth":0,"parameterNumber":2,"parameterNumberName":"U-component_of_WINDS"},"data":[0,0,0,-5.2971,-5.2975,-5.3167,-5.3168,-5.3425,-5.3427,0,0,0,0,0,0,0,0,0,0,0,-5.292,-5.2922,-5.2971,-5.2976,-5.3167,-5.3168,-5.3425,-5.3427,0,0,0,0,0,0,0,0,0,0,0,-5.2919,-5.2922,-5.2924,-5.2976,-5.3167,-5.3168,-5.3424,-5.3275,0,0,0,0,0,0,0,0,0,0,-5.3087,-5.3046,-5.2921,-5.2924,-5.2977,-5.3167,-5.3168,-5.3268,-5.3285,-5.3343,0,-5.3395,0,-5.3415,-5.3445,-5.3446,0,0,0,-5.2971,-5.3032,-5.3078,-5.2924,-5.2979,-5.3166,-5.3079,-5.3277,-5.3296,-5.3365,-5.3399,-5.3408,-5.342,-5.3447,-5.3448,-5.3795,-5.3797,0,0,-5.2961,-5.2958,-5.3065,-5.3091,-5.3061,-5.3073,-5.3085,-5.3288,-5.3326,-5.34,-5.3414,-5.3424,-5.3449,-5.3451,-5.3793,-5.3796,0,0,0,-5.2933,-5.2951,-5.2992,-5.308,-5.3114,-5.3079,-5.3093,-5.3316,-5.333,-5.3417,-5.3427,-5.345,-5.3454,-5.3792,-5.3794,-5.3879,0,0,0,-5.2927,-5.2935,-5.2987,-5.2988,-5.3111,-5.3217,-5.3117,-5.3316,-5.3339,-5.3426,-5.345,-5.3456,-5.3789,-5.3793,-5.3872,-5.3919,0,0,0,-5.2906,-5.2932,-5.2962,-5.2987,-5.307,-5.3214,-5.3239,-5.3321,-5.3346,-5.3446,-5.3457,-5.3788,-5.3792,-5.3867,-5.3909,-5.4007,0,0,0,-5.2883,-5.3037,-5.2963,-5.314,-5.3068,-5.3266,-5.3238,-5.3386,-5.3483,-5.3452,-5.379,-5.3794,-5.3865,-5.3903,-5.4001,-5.4087,-5.4123,0,0,-5.3075,-5.306,-5.3163,-5.3104,-5.3313,-5.3237,-5.346,-5.3552,-5.3565,-5.3718,-5.3727,-5.3875,-5.3909,-5.4006,-5.4334,-5.4362,0,0,0,-5.3223,-5.3298,-5.3354,-5.3445,-5.3519,-5.3585,-5.3643,-5.3678,-5.3807,-5.3643,-5.3938,-5.3959,-5.4016,-5.4057,-5.4082,-5.413,-5.3814,-5.3813,-5.3813,-5.349,-5.3498,-5.3669,-5.37,-5.379,-5.3848,-5.3921,-5.3977,-5.396,-5.403,-5.4074,-5.4272,-5.432,-5.4339,-5.4389,-5.4123,-5.4124,-5.4124,-5.4124,-5.377,-5.3875,-5.3849,-5.4005,-5.4013,-5.4145,-5.4208,-5.4192,-5.4316,-5.424,-5.4291,-5.4203,-5.437,-5.4414,-5.4131,-5.413,-5.4129,-5.4128,-5.4128,-5.3943,-5.3994,-5.4033,-5.4165,-5.4268,-5.4295,-5.4415,-5.4419,-5.4424,-5.4475,-5.452,-5.4519,-5.4515,-5.4497,-5.4498,-5.4498,-5.4499,-5.4499,-5.45,-5.4104,-5.4146,-5.4245,-5.4337,-5.4396,-5.4474,-5.4536,-5.4595,-5.4661,-5.4654,-5.4654,-5.4629,-5.4386,-5.4323,-5.451,-5.4509,-5.4507,-5.4506,-5.4505,-5.4379,-5.4318,-5.4472,-5.4531,-5.4638,-5.4738,-5.4743,-5.4863,-5.4912,-5.4971,-5.4936,-5.4757,-5.4741,-5.4722,-5.4669,-5.4935,-5.4935,-5.4935,-5.4935,-5.4522,-5.4515,-5.4672,-5.4766,-5.486,-5.488,-5.5054,-5.5104,-5.5147,-5.5178,-5.5141,-5.5073,-5.5054,-5.5049,-5.5023,-5.4974,-5.5311,-5.5312,-5.5312,-5.469,-5.4692,-5.4838,-5.4878,-5.4963,-5.5036,-5.5199,-5.5309,-5.5346,-5.5327,-5.5202,-5.5186,-5.5077,-5.5041,-5.5016,-5.4974,-5.4884,0,0]},{"header":{"parameterUnit":"m.s-1","parameterCategory":1,"la1":30.2992,"la2":30.254,"lo1":-89.0895,"lo2":-89.0443,"dy":0.0025,"dx":0.0025,"nx":19,"ny":19,"refTime":"2026-04-21T09:00:00:Z","depth":0,"parameterNumber":3,"parameterNumberName":"V-component_of_WINDS"},"data":[0,0,0,2.9037,2.9038,2.9059,2.906,2.9087,2.9087,0,0,0,0,0,0,0,0,0,0,0,2.9032,2.9033,2.9037,2.9038,2.9059,2.906,2.9087,2.9087,0,0,0,0,0,0,0,0,0,0,0,2.9032,2.9033,2.9033,2.9038,2.9059,2.906,2.9087,2.907,0,0,0,0,0,0,0,0,0,0,2.9049,2.9047,2.9032,2.9033,2.9038,2.9059,2.906,2.907,2.9071,2.9078,0,2.9085,0,2.9087,2.9089,2.909,0,0,0,2.9037,2.9045,2.905,2.9033,2.9038,2.9059,2.9049,2.9071,2.9073,2.908,2.9085,2.9086,2.9087,2.909,2.909,2.9132,2.9132,0,0,2.9035,2.9037,2.9048,2.9051,2.9049,2.9049,2.905,2.9072,2.9077,2.9085,2.9087,2.9088,2.909,2.909,2.9132,2.9132,0,0,0,2.9033,2.9036,2.904,2.905,2.9054,2.9049,2.9051,2.9076,2.9077,2.9087,2.9088,2.909,2.909,2.9131,2.9132,2.9146,0,0,0,2.9032,2.9035,2.904,2.9041,2.9054,2.9066,2.9055,2.9076,2.9078,2.9088,2.909,2.9091,2.9131,2.9132,2.9145,2.9153,0,0,0,2.903,2.9035,2.9038,2.9041,2.905,2.9065,2.9068,2.9076,2.9079,2.909,2.9091,2.9131,2.9131,2.9144,2.9152,2.9164,0,0,0,2.9029,2.9052,2.9039,2.9063,2.905,2.9074,2.9068,2.9085,2.9096,2.909,2.9131,2.9132,2.9144,2.9151,2.9163,2.9176,2.9181,0,0,2.9058,2.9055,2.9069,2.9058,2.9085,2.9071,2.9099,2.9107,2.9107,2.9123,2.9124,2.9146,2.9152,2.9164,2.9209,2.9213,0,0,0,2.9079,2.9089,2.9096,2.9106,2.9113,2.9119,2.9122,2.9125,2.9139,2.9116,2.9153,2.9157,2.9164,2.917,2.9174,2.9179,2.9134,2.9134,2.9134,2.9124,2.9121,2.9143,2.9143,2.9152,2.9154,2.9162,2.9165,2.916,2.9169,2.9174,2.9202,2.9209,2.9211,2.9217,2.918,2.918,2.918,2.918,2.9166,2.918,2.917,2.9189,2.9185,2.92,2.9202,2.9197,2.921,2.9198,2.9204,2.9192,2.9216,2.9221,2.9181,2.9181,2.9181,2.9181,2.918,2.9196,2.9202,2.9204,2.9217,2.9227,2.9224,2.9236,2.9232,2.9228,2.9234,2.9238,2.9238,2.9237,2.9236,2.9236,2.9236,2.9236,2.9236,2.9236,2.9227,2.9228,2.924,2.9246,2.9251,2.9257,2.9256,2.9261,2.9264,2.926,2.926,2.9253,2.9219,2.921,2.9238,2.9237,2.9237,2.9237,2.9237,2.9273,2.9261,2.9279,2.9283,2.9289,2.9298,2.9291,2.9299,2.9302,2.9307,2.9298,2.9273,2.927,2.9267,2.926,2.9299,2.9299,2.9299,2.9299,2.9299,2.9296,2.9312,2.9319,2.9325,2.932,2.9337,2.9336,2.9333,2.9333,2.9327,2.9317,2.9314,2.9312,2.9308,2.9302,2.935,2.935,2.9351,2.9327,2.9324,2.9342,2.9338,2.9341,2.9343,2.9359,2.9367,2.936,2.9352,2.9334,2.9332,2.9316,2.9311,2.9305,2.9299,2.9287,0,0]}]]